Погода в Мамоновке

Россия / Воронежская область     50°23′35″N   40°30′18″E
В апреле 2022 года жителям России запретили посещать сайт meteo.paraplan.net по решению Генеральной прокуратуры. Аудитория сайта уменьшилась в 10 раз. Владельцы сайта не видят смысла в поддержке погодного сервера в таких условиях. Сайт будет закрыт в октябре.
темп.,
°C
ветер,
м/с
пор.,
м/с
влажн.,
%
обл.,
%
осадки,
мм/ч
давл.,
гПа
погр.,
м
30 сентября, пт
пт3000:00+14в2272100 0.0 101623
03:00+14юв3572100 0.0 1017100
06:00+13юв3678100 0.0 1018113
09:00+16ююв4668100 0.0 1019272
12:00+19ююв4561100 0.0 1019550
15:00+22ю455223 0.0 10181480
18:00+18юв456519 0.0 101972
21:00+17ююв486952 0.0 1019136
1 октября, сб
сб100:00+17ююв41068100 0.0 1019226
03:00+15ююв4972100 0.0 1019174
06:00+15ююв4776100 0.0 1019128
09:00+18ю51071100 0.6 1019448
12:00+22ююз68585 0.0 10181025
15:00+24юз695154 0.1 10161816
18:00+20юз3567100 0.0 101682
21:00+18ююз3879100 0.6 1015130
2 октября, вс
вс200:00+17юз3981100 0.6 1014212
03:00+16юз228665 0.6 101420
06:00+15ююз2286100 0.0 101322
09:00+18ю3478100 0.5 1013207
12:00+18ююв5879100 1.1 1012427
15:00+22ююв5764100 1.3 1009753
18:00+19юв51071100 0.0 1007206
21:00+19ююз71569100 0.9 1005545
3 октября, пн
пн300:00+16юв2491100 3.0 1004152
03:00+18ююв81663100 3.1 1001724
06:00+15ююв61381100 1.4 1000619
09:00+15ююз81288100 2.1 1001763
12:00+13зюз6982100 0.2 1005707
15:00+14зюз6771100 0.2 1007987
18:00+12зюз588089 0.1 1010763
21:00+10юз378821 0.1 1011252
4 октября, вт
вт400:00+11юз4782100 0.1 1013321
03:00+11зюз2584100 0.1 1014274
06:00+10юз2385100 0.0 1016120
09:00+11ююз3476100 0.0 1017425
12:00+15юз455632 0.0 10171424
15:00+16юз4547100 0.1 10181816
18:00+15ююз3549100 0.0 1019121
21:00+14ю2357100 0.0 102072